Regional Weather Roundup
Issued by NWS

Current Version | Previous Version | Text Only | Print | Product List | Glossary Off
Versions: 1 2 3 4 5 6 7 8 9 10 11 12 13 14 15 16 17 18 19 20 21 22 23 24 25 26 27 28 29 30 31 32 33 34 35 36 37 38 39 40 41 42 43 44 45 46 47 48 49 50

000
ASUS44 KBMX 051110
RWRAL

ALABAMA REGIONAL WEATHER ROUNDUP
NATIONAL WEATHER SERVICE BIRMINGHAM AL
500 AM CST MON DEC 05 2016

NOTE: "FAIR" INDICATES FEW OR NO CLOUDS BELOW 12,000 FEET
WITH NO SIGNIFICANT WEATHER AND/OR OBSTRUCTIONS TO VISIBILITY.

THE REMARK "TC" DENOTES TEMPERATURE IN DEGREES CELSIUS.

ALZ001>011-014-016>018-020-051200-
NORTH ALABAMA

CITY           SKY/WX    TMP DP  RH WIND       PRES   REMARKS
MUSCLE SHOALS  CLOUDY    47  43  86 NE6       30.01F
HUNTSVILLE     CLOUDY    50  48  93 NE7       29.99F
DECATUR        CLOUDY    48  48 100 N8        30.00F FOG
HALEYVILLE     CLOUDY    46  46 100 VRB5      30.00F FOG
GADSDEN        CLOUDY    46  46 100 NE8       29.99F FOG
$$

ALZ012-013-022-023-030>036-040>044-051200-
WEST CENTRAL ALABAMA

CITY           SKY/WX    TMP DP  RH WIND       PRES   REMARKS
TUSCALOOSA     CLOUDY    52  51  97 NE5       29.98S
$$

ALZ015-024>027-033>036-040>044-051200-
CENTRAL ALABAMA

CITY           SKY/WX    TMP DP  RH WIND       PRES   REMARKS
BIRMINGHAM     CLOUDY    50  49  96 NE3       29.99S
MONTGOMERY     FOG       54  50  86 NE7       29.96F VSB 1/2
SHELBY CO ARPT CLOUDY    51  51 100 CALM      29.98S
MAXWELL AFB    CLOUDY    52  52 100 N6        29.95F FOG
GREENVILLE     FOG       56  52  86 NE3       29.93S VSB 1/2
$$

ALZ019-021-028-029-037-038-045>048-051200-
EAST CENTRAL ALABAMA

CITY           SKY/WX    TMP DP  RH WIND       PRES   REMARKS
ANNISTON       CLOUDY    48  47  96 SE5       29.99S
ALEXANDER CITY FOG       52  51  97 N5        29.97R VSB 1
AUBURN         CLOUDY    48  48 100 NE6       29.96F FOG
$$

ALZ051>064-051200-
SOUTHWEST ALABAMA

CITY           SKY/WX    TMP DP  RH WIND       PRES   REMARKS
MOBILE         FOG       57  56  96 N12       29.90F VSB 3/4
BROOKLEY FIELD CLOUDY    60  59  96 N8        29.92F FOG
EVERGREEN      FOG       59  58  96 N3        29.93F VSB 3/4
$$

ALZ049-050-065>069-051200-
SOUTHEAST ALABAMA

CITY           SKY/WX    TMP DP  RH WIND       PRES   REMARKS
DOTHAN         FOG       58  58 100 N10       29.95R VSB 1/4
OZARK          FOG       59  59 100 N8        29.91S VSB 3/4
TROY           CLOUDY    53  53 100 NE5       29.96R FOG
EUFAULA        FOG       52  51  97 CALM      29.94S VSB 1/2
$$



USA.gov is the U.S. government's official web portal to all federal, state and local government web resources and services.